Location: New Canada
(47.1017°N, 68.5042°W)
Time: 17:50:51
(UTC+00:00)

KKS-1 - Pass Details

Date: 30 April 2024
Orbit: 628 x 639 km, 98.1° (Epoch: 21 May)

Event Time Altitude Azimuth Distance (km) Brightness Sun altitude
Rises 04:36:27 0° 6° (N) 2,957 ? -28.0°
Reaches altitude 10° 04:38:47 10° 359° (N) 2,043 ? -28.0°
Enters shadow 04:42:30 37° 304° (NW) 1,003 ? -27.9°
